AirNav   Everest Fuels
 
 862 users online  

FD36 Advent Health East Orlando Heliport
Orlando, Florida, USA

GOING TO ORLANDO?


FAA INFORMATION EFFECTIVE 21 MAY 2020

Location

FAA Identifier: FD36
Lat/Long: 28-32-26.7000N 081-16-51.0000W
28-32.445000N 081-16.850000W
28.5407500,-81.2808333
(estimated)
Elevation: 113 ft. / 34 m (estimated)
Variation: 03W (1985)
From city: 8 miles E of ORLANDO, FL
Time zone: UTC -4 (UTC -5 during Standard Time)
Zip code: 32822

Heliport Operations

Heliport use: Private use, MEDICAL.
Activation date: 06/1985
Control tower: no
ARTCC: JACKSONVILLE CENTER
FSS: SAINT PETERSBURG FLIGHT SERVICE STATION
Attendance: CONTINUOUS
Wind indicator: yes
Segmented circle: no

Heliport Communications

WX ASOS at ORL (2.8 nm W): PHONE 407-658-6753
WX ASOS at MCO (7 nm S): PHONE 407-855-5235
WX ASOS at SFB (14 nm N): PHONE 407-321-9384
WX AWOS-3PT at ISM (17 nm SW): 128.775 (407-847-0533)

Nearby radio navigation aids

VOR radial/distance  VOR name  Freq  Var
ORLr092/2.9ORLANDO VORTAC112.2000E

Heliport Services

Runway Information

Helipad H1

Dimensions: 50 x 50 ft. / 15 x 15 m
Surface: asphalt
Latitude: 28-32.473667N
Longitude: 081-16.796667W
Elevation: 113.0 ft.
Traffic pattern: leftleft

Heliport Ownership and Management from official FAA records

Ownership: Privately-owned
Owner: 1 ADVENTIST HEALTH SYSTEM / SUNBELT
901 NORTH LAKE DESTINY RD STE 375
MAITLAND, FL 32751-6135
Phone 407-303-1610
Manager: RICHARD NETTLES
601 ROLLINS AVENUE, BOX 161
ORLANDO, FL 32822
Phone (407) 303-8832

Additional Remarks

FOR CD CTC ORLANDO APCH AT 407-852-7553.

Instrument Procedures

There are no published instrument procedures at FD36.

Some nearby airports with instrument procedures:

KORL - Executive Airport (3 nm W)
KMCO - Orlando International Airport (7 nm S)
KSFB - Orlando Sanford International Airport (14 nm N)
KISM - Kissimmee Gateway Airport (17 nm SW)
X04 - Orlando Apopka Airport (19 nm NW)
 
Loc | Ops | Rwys | IFR | FBO | Links
Com | Nav | Svcs | Stats | Notes


 
Area around FD36 (Advent Health East Orlando Heliport)
 
Road maps at: MapQuest Bing Google
 
Aerial photo
WARNING: Photo may not be current or correct
Aerial photo of FD36 (Advent Health East Orlando Heliport)
Photo by Don F. Pease
Photo taken 28-Mar-2006
looking south.

Do you have a better or more recent aerial photo of Advent Health East Orlando Heliport that you would like to share? If so, please send us your photo.

 
Sectional chart

 
Airport distance calculator
Flying to Advent Health East Orlando Heliport? Find the distance to fly.

From to FD36

Sunrise and sunset
Times for 06-Jun-2020
 Local
(UTC-4)
 Zulu
(UTC)
Morning civil twilight06:0110:01
Sunrise06:2810:28
Sunset20:2000:20
Evening civil twilight20:4700:47

Current date and time
Zulu (UTC)  06-Jun-2020 13:15:18
Local (UTC-4)  06-Jun-2020 09:15:18
 
METAR
KORL 
3nm W 
061253Z 07006KT 10SM BKN012 BKN026 OVC110 25/23 A3002 RMK AO2 RAB12E21 SLP170 P0000 T02500233
KMCO 
8nm S 
061253Z 06007KT 10SM -RA FEW055 BKN095 OVC250 24/23 A3002 RMK AO2 SLP163 P0001 T02440233 $
KSFB 
14nm N 
061253Z 06004KT 10SM -RA FEW065 FEW110 24/23 A3002 RMK AO2 RAB07 SLP166 P0000 T02440228
KISM 
17nm SW 
061256Z 08006KT 10SM -RA FEW043 25/24 A3003 RMK AO2 SLP167 T02500244 PNO $
TAF
KMCO 
8nm S 
061140Z 0612/0718 14007KT 6SM -RA FEW040 BKN100 OVC250 TEMPO 0614/0618 4SM SHRA SCT015 BKN030 FM061800 06008KT 4SM RA VCTS SCT030CB BKN050 OVC100 FM070100 07010KT 6SM SHRA SCT015 BKN025 FM070600 10009KT P6SM VCSH SCT010 BKN020 FM071100 13005KT P6SM VCSH BKN030
KSFB 
14nm N 
061140Z 0612/0712 18006KT 6SM -RA FEW040 BKN100 OVC250 TEMPO 0614/0618 4SM SHRA SCT015 BKN030 FM061800 06007KT 4SM RA VCTS SCT030CB BKN050 OVC100 FM070100 07008KT 6SM SHRA SCT015 BKN025 FM070600 09006KT P6SM VCSH SCT010 BKN020
KISM 
17nm SW 
061140Z 0612/0712 VRB04KT 6SM -RA FEW040 BKN100 OVC250 TEMPO 0614/0618 4SM SHRA SCT015 BKN030 FM061800 12007KT 4SM RA VCTS SCT030CB BKN050 OVC100 FM070100 07010KT 6SM SHRA SCT015 BKN025 FM070600 10009KT P6SM VCSH SCT010 BKN020
NOTAMs
Click for the latest NOTAMs
NOTAMs are issued by the DoD/FAA and will open in a separate window not controlled by AirNav.

 

 
 

Would you like to see your business listed on this page?

 If your business provides an interesting product or service to pilots, flight crews, aircraft, or users of the Advent Health East Orlando Heliport, you should consider listing it here.  To start the listing process, click on the button below
 
Add a business
 

Other Pages about Advent Health East Orlando Heliport

Update a link
 
Copyright © AirNav, LLC. All rights reserved. Privacy Policy  Contact